Location: Newark
(54.6833°N, 25.2833°E)
Time: 14:43:28
(UTC+00:00)

Transit 2A Rocket - Visible Passes

Search period start: 15 November 2019 00:00
Search period end: 25 November 2019 00:00
Orbit: 594 x 909 km, 66.7° (Epoch: 14 November)

Date Brightness Start Highest point End Pass type
(mag) Time Alt. Az. Time Alt. Az. Time Alt. Az.
15 Nov 6.7 02:20:16 19° NNE 02:20:16 19° NNE 02:23:03 10° ENE visible
15 Nov 5.4 04:00:10 15° NNW 04:03:29 43° NE 04:07:41 10° ESE visible
16 Nov 7.4 01:38:59 13° NE 01:38:59 13° NE 01:39:55 10° NE visible
16 Nov 5.9 03:18:53 23° NNW 03:20:46 32° NNE 03:24:42 10° E visible
16 Nov 4.6 04:59:18 10° NW 05:03:35 64° SW 05:07:59 10° SSE visible
17 Nov 6.2 02:37:39 25° NNE 02:37:57 25° NNE 02:41:35 10° E visible
17 Nov 4.5 04:17:34 15° NW 04:21:05 83° NE 04:25:31 10° SE visible
18 Nov 7.0 01:56:26 18° NE 01:56:26 18° NE 01:58:24 10° ENE visible
18 Nov 5.0 03:36:20 27° NNW 03:38:30 55° NE 03:42:50 10° ESE visible
19 Nov 5.6 02:55:10 36° NNE 02:55:48 39° NE 02:59:57 10° ESE visible
19 Nov 4.9 04:35:05 15° NW 04:38:26 47° WSW 04:42:43 10° SSE visible
20 Nov 6.5 02:14:02 26° NE 02:14:02 26° NE 02:16:54 10° E visible
20 Nov 4.4 03:53:57 31° NW 03:55:59 75° SW 04:00:26 10° SSE visible
21 Nov 7.5 01:32:57 14° ENE 01:32:57 14° ENE 01:33:46 10° ENE visible
21 Nov 4.6 03:12:53 62° N 03:13:27 72° NE 03:17:54 10° SE visible
21 Nov 5.9 04:52:48 13° WNW 04:55:35 22° WSW 04:59:01 10° SSW visible
22 Nov 5.8 02:31:52 40° E 02:31:52 40° E 02:35:08 10° ESE visible
22 Nov 5.3 04:11:47 27° W 04:13:16 34° WSW 04:17:20 10° S visible
23 Nov 7.2 01:50:53 18° E 01:50:53 18° E 01:52:11 10° E visible
23 Nov 4.6 03:30:50 55° WSW 03:30:51 55° SW 03:35:15 10° SSE visible
24 Nov 5.6 02:49:56 40° SE 02:49:56 40° SE 02:52:52 10° SE visible
24 Nov 6.2 04:29:52 16° WSW 04:30:18 16° WSW 04:33:03 10° SSW visible
